Spokane Felts, WA
on Saturday, December 8, 2012

Saturday
Previous Day Next Day
Daily Summary
 ActualAverageRecord
Temperature
Mean Temperature °F 30°F  
Max Temperature 37°F 36°F 51°F (2014)
Min Temperature 23°F 25°F 3°F (2013)
Degree Days
Heating Degree Days 35 35  
Month to date heating degree days 149 271  
Since 1 July heating degree days 1422 1845  
Cooling Degree Days 0 0  
Month to date cooling degree days 0 0  
Year to date cooling degree days 509 406  
Moisture
Dew Point 19°F   
Average Humidity 58    
Maximum Humidity 78    
Minimum Humidity 37    
Precipitation
Precipitation 0.00 in 0.09 in 0.28 in (2004)
Month to date precipitation 0.47 0.68  
Year to date precipitation 19.23 15.90  
Wind
Wind Speed 3 mph   
Max Wind Speed 9 mph   
Max Gust Speed 13 mph   
Visibility 10 miles   
Events     

Key: T is trace of precipitation, MM is missing value
Source: NWS Daily Summary
Time(PST)TemperatureDew PointHumidity Pressure Visibility Wind DirectionWind SpeedGust SpeedPrecipitationEvents Conditions
12:53 AM 30.9°F 24.1°F 76% 29.97 in 10.0 miles West 5.8 mph - N/A   Clear
1:53 AM 30.9°F 23.0°F 72% 29.99 in 10.0 miles Calm Calm - N/A   Clear
2:53 AM 30.2°F 21.2°F 69% 29.97 in 10.0 miles WNW 4.6 mph - N/A   Clear
3:53 AM 30.0°F 21.9°F 72% 30.03 in 10.0 miles WNW 3.5 mph - N/A   Scattered Clouds
4:53 AM 30.0°F 21.0°F 69% 30.05 in 10.0 miles West 3.5 mph - N/A   Clear
5:53 AM 30.0°F 19.9°F 66% 30.06 in 10.0 miles WNW 5.8 mph - N/A   Clear
6:53 AM 28.0°F 19.0°F 69% 30.09 in 10.0 miles West 4.6 mph - N/A   Clear
7:53 AM 28.0°F 19.0°F 69% 30.12 in 10.0 miles Calm Calm - N/A   Clear
8:53 AM 28.0°F 19.0°F 69% 30.14 in 10.0 miles WSW 4.6 mph - N/A   Clear
9:53 AM 30.9°F 19.0°F 61% 30.16 in 10.0 miles WSW 6.9 mph - N/A   Scattered Clouds
10:53 AM 33.1°F 19.9°F 59% 30.16 in 10.0 miles SW 6.9 mph - N/A   Scattered Clouds
11:53 AM 35.1°F 18.0°F 50% 30.16 in 10.0 miles WSW 4.6 mph - N/A   Partly Cloudy
12:53 PM 36.0°F 12.9°F 39% 30.16 in 10.0 miles WNW 4.6 mph - N/A   Clear
1:53 PM 37.0°F 14.0°F 39% 30.17 in 10.0 miles NNW 3.5 mph - N/A   Scattered Clouds
2:53 PM 36.0°F 16.0°F 44% 30.19 in 10.0 miles NNW 5.8 mph - N/A   Scattered Clouds
3:53 PM 32.0°F 16.0°F 52% 30.22 in 10.0 miles North 4.6 mph - N/A   Partly Cloudy
4:53 PM 32.0°F 16.0°F 52% 30.23 in 10.0 miles Calm Calm - N/A   Scattered Clouds
5:53 PM 30.9°F 18.0°F 59% 30.25 in 10.0 miles Calm Calm - N/A   Mostly Cloudy
6:53 PM 28.9°F 19.0°F 67% 30.27 in 10.0 miles Calm Calm - N/A   Overcast
7:53 PM 28.0°F 18.0°F 66% 30.30 in 10.0 miles Calm Calm - N/A   Overcast
8:53 PM 28.0°F 19.0°F 69% 30.31 in 10.0 miles Calm Calm - N/A   Clear
9:53 PM 27.0°F 18.0°F 69% 30.32 in 10.0 miles Calm Calm - N/A   Scattered Clouds
10:53 PM 25.0°F 17.1°F 72% 30.34 in 10.0 miles Calm Calm - N/A   Clear
11:53 PM 23.0°F 17.1°F 78% 30.35 in 10.0 miles Calm Calm - N/A   Clear
Moon Phase
Dec. 08 Dec. 13 Dec. 20 Dec. 28 Jan. 04
Sunrise:07:25 AM (PST) Moon Rise:01:36 AM (PST)12/8
Sunset:03:57 PM (PST) Moon Set:12:46 PM (PST)12/8

Copyright © 2014 The Weather Underground, Inc.